Tracking 21076 objects as of 10-Aug-2020
HD Live streaming from Space Station
objects crossing your sky now
Track the most recent launched group of Starlink satellites

FENGYUN 1C DEB

Track FENGYUN 1C DEB now!
10-day predictions


NORAD ID: 32201
Int'l Code: 1999-025CUX
Perigee: 778.5 km
Apogee: 985.8 km
Inclination: 99.1 °
Period: 102.5 minutes
Semi major axis: 7253 km
RCS: 0.0094 m2 (small)
Launch date: May 10, 1999
Source: People's Republic of China (PRC)
Launch site: Taiyaun Space Center, China (TSC)

Note: This is SATELLITE DEBRIS
aabbcc
Your satellite tracking list
Your tracking list is empty




NASA's NSSDC Master Catalog

Two Line Element Set (TLE):
1 32201U 99025CUX 20205.34896156 +.00000332 +00000-0 +21279-3 0  9996
2 32201 099.1365 242.0247 0142917 277.4241 081.0706 14.05437045684312
Source of the keplerian elements: AFSPC